Weather History for Volk, WI

Change the Weather History Date:

Sunday, December 11, 2011

  Actual Average Record
Temperature  
Mean Temperature 36 °F -  
Max Temperature 46 °F 32 °F 50 °F (1998)
Min Temperature 25 °F 20 °F -14 °F (2013)
Degree Days  
Heating Degree Days 30    
Moisture  
Dew Point 29 °F    
Average Humidity 83    
Maximum Humidity 100    
Minimum Humidity 46    
Precipitation  
Precipitation 0.00 in - - ()
Sea Level Pressure  
Sea Level Pressure 30.23 in    
Wind  
Wind Speed 8 mph (SSW)    
Max Wind Speed 12 mph    
Max Gust Speed -    
Visibility 10 miles    
Events      
Averages and records for this station are not official NWS values.
T = Trace of Precipitation, MM = Missing Value Source: NWS Daily Summary

Daily Weather History Graph

Daily Weather History Graph

Search for Another Location

Airport:

Trip Planner

Search our weather history database for the weather conditions in past years. The results will help you decide how hot, cold, wet, or windy it might be!

Date:

Astronomy

Dec. 11, 2011 Rise Set
Actual Time 7:25 AM CST 4:23 PM CST
Civil Twilight 6:52 AM CST 4:55 PM CST
Nautical Twilight 6:15 AM CST 5:32 PM CST
Astronomical Twilight 5:40 AM CST 6:07 PM CST
Moon 5:33 PM CST (12/11) 8:13 AM CST (12/11)
Length of Visible Light 10h 03m
Length of Day
8h 57m
Full, 99% of the Moon is Illuminated
Dec 11
Full
Dec 17
Last Quarter
Dec 24
New
Jan 1
First Quarter
Jan 9
Full

Hourly Weather History & Observations

Time (CST) Temp. Windchill Dew Point Humidity Pressure Visibility Wind Dir Wind Speed Gust Speed Precip Events Conditions
12:55 AM 25.0 °F 15.5 °F 24.4 °F 98% 30.25 in 10.0 mi SSW 9.2 mph - N/A   Clear
1:55 AM 26.4 °F 18.0 °F 25.5 °F 96% 30.24 in 10.0 mi SSW 8.1 mph - N/A   Clear
2:55 AM 26.4 °F 18.9 °F 26.2 °F 99% 30.24 in 10.0 mi SSW 6.9 mph - N/A   Clear
3:55 AM 26.8 °F 20.2 °F 26.1 °F 97% 30.23 in 10.0 mi SSW 5.8 mph - N/A   Clear
4:55 AM 27.5 °F 20.2 °F 26.2 °F 95% 30.23 in 10.0 mi South 6.9 mph - N/A   Clear
5:55 AM 27.3 °F 22.0 °F 26.4 °F 96% 30.24 in 10.0 mi South 4.6 mph - N/A   Clear
6:55 AM 28.4 °F 21.2 °F 27.0 °F 94% 30.24 in 10.0 mi South 6.9 mph - N/A   Clear
7:55 AM 28.2 °F 19.5 °F 27.1 °F 96% 30.24 in 10.0 mi South 9.2 mph - N/A   Clear
8:55 AM 30.6 °F 23.8 °F 27.7 °F 89% 30.25 in 10.0 mi South 6.9 mph - N/A   Clear
9:55 AM 35.6 °F 29.9 °F 28.4 °F 75% 30.24 in 10.0 mi SSW 6.9 mph - N/A   Clear
10:55 AM 39.2 °F 35.0 °F 28.4 °F 65% 30.23 in 10.0 mi Variable 5.8 mph - N/A   Clear
11:55 AM 42.8 °F 36.6 °F 26.6 °F 53% 30.20 in 10.0 mi South 11.5 mph - N/A   Clear
12:55 PM 44.6 °F 39.2 °F 26.6 °F 49% 30.18 in 10.0 mi South 10.4 mph - N/A   Clear
1:55 PM 46.4 °F 41.9 °F 26.6 °F 46% 30.17 in 10.0 mi SSW 9.2 mph - N/A   Clear
2:55 PM 46.4 °F 42.4 °F 26.6 °F 46% 30.17 in 10.0 mi South 8.1 mph - N/A   Clear
3:55 PM 42.8 °F 38.0 °F 26.6 °F 53% 30.19 in 10.0 mi SSW 8.1 mph - N/A   Clear
4:55 PM 41.0 °F 36.4 °F 28.4 °F 61% 30.20 in 10.0 mi SSW 6.9 mph - N/A   Clear
5:55 PM 37.4 °F 31.4 °F 28.4 °F 70% 30.22 in 10.0 mi SSW 8.1 mph - N/A   Clear
6:46 PM 33.8 °F 26.4 °F 30.2 °F 87% 30.25 in 10.0 mi WSW 9.2 mph - N/A   Mostly Cloudy
6:55 PM 33.4 °F 26.6 °F 30.6 °F 89% 30.25 in 10.0 mi SW 8.1 mph - N/A   Mostly Cloudy
7:02 PM 33.8 °F 25.3 °F 30.2 °F 87% 30.25 in 10.0 mi SW 11.5 mph - N/A   Overcast
7:55 PM 34.0 °F 27.2 °F 33.8 °F 99% 30.26 in 10.0 mi SW 8.1 mph - N/A   Overcast
8:55 PM 34.2 °F 27.5 °F 34.0 °F 99% 30.24 in 9.0 mi South 8.1 mph - N/A   Overcast
9:55 PM 34.5 °F 27.3 °F 34.3 °F 99% 30.25 in 9.0 mi South 9.2 mph - N/A   Overcast
10:55 PM 35.6 °F 29.2 °F 35.4 °F 99% 30.25 in 8.0 mi South 8.1 mph - N/A   Overcast
10:57 PM 35.6 °F 28.6 °F 35.6 °F 100% 30.25 in 8.0 mi South 9.2 mph - N/A   Overcast
11:55 PM 36.3 °F 30.8 °F 36.0 °F 99% 30.25 in 9.0 mi South 6.9 mph - N/A   Overcast